Weather in Kotzebue

United States     66°53′48″N   162°35′09″W
temp.,
°C
wind,
m/s
gust,
m/s
humid.,
%
clouds,
%
prec.,
mm/h
press.,
hPa
HPBL,
m
25 may, wed
wed2501:00+4w2257100 0.0 100911
04:00+2wsw3370100 0.0 100924
07:00+2wsw247996 0.0 100958
10:00+3wsw237142 0.0 1010115
13:00+4wsw346760 0.0 1011198
16:00+5w4767100 0.0 1011212
19:00+5wsw577293 0.0 1010177
22:00+4wsw577897 0.0 1011117
26 may, thu
thu2601:00+1wsw458515 0.0 101252
04:00+1w348679 0.0 101348
07:00+2wsw3583100 0.0 101386
10:00+2wsw468378 0.0 1014181
13:00+3wsw578345 0.0 1015239
16:00+3wsw578349 0.0 1015210
19:00+4wsw567831 0.0 1015180
22:00+5wsw46736 0.0 1015115
27 may, fri
fri2701:00+3w338014 0.0 101530
04:00+2w228492 0.0 101519
07:00+2ssw2286100 0.0 101636
10:00+3sse128352 0.0 101693
13:00+4sse237899 0.0 1016172
16:00+5sse127190 0.0 1016206
19:00+6se117017 0.0 1014226
22:00+5w33767 0.0 101476
28 may, sat
sat2801:00+4w45783 0.0 101547
04:00−1wsw469473 0.0 101697
07:00+1w459072 0.0 1016124
10:00+3wsw558456 0.0 1017188
13:00+3wsw568351 0.0 1017310
16:00+4wsw678142 0.0 1016393
19:00+5w677737 0.0 1015328
22:00+5w56788 0.0 1015201
29 may, sun
sun2901:00+3w46846 0.0 101673
04:00+1w459010 0.0 101660
07:00+2wnw45855 0.0 101696
10:00+5wnw45764 0.0 1016169
13:00+6w45708 0.0 1016356
16:00+7w46668 0.0 1016484
19:00+8wnw786021 0.0 1015414
22:00+7wnw556445 0.0 1015262